Location: Newark
(43.4306°N, 0.3089°E)
Time: 21:51:39
(UTC+00:00)

Vanguard 3 - Pass Details

Date: 26 August 2019
Orbit: 508 x 3263 km, 33.4° (Epoch: 14 September)

Event Time Altitude Azimuth Distance (km) Brightness Sun altitude
Rises 13:38:34 0° 210° (SSW) 6,456 12.4 50.7°
Reaches altitude 10° 13:44:59 10° 196° (SSW) 4,926 11.9 50.0°
Maximum altitude 13:53:07 19° 158° (SSE) 3,424 10.8 48.9°
Drops below altitude 10° 13:59:03 10° 117° (ESE) 3,440 10.3 48.2°
Sets 14:02:26 0° 99° (E) 4,008 10.4 47.7°
